| Date | Temp | Humidity | Rainfall | Dew Point | Wind Direction | Wind Speed | Wind Pressure | Condition | Visibility |
|---|---|---|---|---|---|---|---|---|---|
| 2025-05-06 21:00:48 | 30 | 76 | 25 | 360 | 5.7 | 1009 | Partly Cloudy (Night) | 10 KM | |
| 2025-05-06 20:00:46 | 30 | 76 | 25 | 320 | 5.7 | 1009 | Partly Cloudy (Night) | 10 KM | |
| 2025-05-06 18:56:42 | 30 | 72 | 24 | 320 | 9.5 | 1008 | Partly Cloudy (Night) | 10 KM | |
| 2025-05-06 17:59:11 | 31 | 64 | 24 | 320 | 11.4 | 1007 | Partly Cloudy (Day) | 10 KM | |
| 2025-05-06 16:57:45 | 32 | 56 | 23 | 320 | 11.4 | 1006 | Partly Cloudy (Day) | 10 KM | |
| 2025-05-06 15:57:51 | 33 | 54 | 22 | 300 | 11.4 | 1006 | Partly Cloudy (Day) | 20 KM | |
| 2025-05-06 15:00:17 | 33 | 57 | 23 | 330 | 19.0 | 1007 | Partly Cloudy (Day) | 20 KM | |
| 2025-05-06 13:58:53 | 33 | 59 | 24 | 340 | 7.6 | 1008 | Partly Cloudy (Day) | 20 KM | |
| 2025-05-06 13:00:55 | 32 | 64 | 25 | 030 | 15.2 | 1009 | Partly Cloudy (Day) | 20 km | |
| 2025-05-06 12:02:15 | 31 | 71 | 25 | 050 | 3.8 | 1010 | Distant showers | 10 km | |
| 2025-05-06 10:59:36 | 33 | 57 | 24 | 180 | 5.7 | 1011 | Cloudy | 20 km | |
| 2025-05-06 09:58:20 | 31 | 67 | 25 | 170 | 7.6 | 1011 | Cloudy | 20 km | |
| 2025-05-06 09:00:37 | 30 | 76 | 25 | 210 | 7.6 | 1012 | Partly Cloudy (Day) | 20 km | |
| 2025-05-06 08:00:04 | 258 | 83 | 0.00 | 25 | 200 | 5.7 | 1011 | Partly Cloudy (Day) | 15 km |
| 2025-05-06 06:57:53 | 26 | 91 | 0.0 | 24 | 250 | 1.9 | 1010 | Partly Cloudy (Day) | 15 km |
| 2025-05-06 06:01:53 | 26 | 93 | 0.00 | 24 | 230 | 3.8 | 1010 | Partly Cloudy (Day) | 10 km |
| 2025-05-06 05:00:20 | 26 | 91 | 0.0 | 24 | 260 | 5.7 | 1009 | Partly Cloudy (Night) | 10 km |
| 2025-05-06 03:58:59 | 26 | 91 | 0.0 | 25 | 210 | 3.8 | 1009 | Partly Cloudy (Night) | 10 km |
| 2025-05-06 03:00:37 | 26 | 91 | 25 | 230 | 3.8 | 1009 | Cloudy | 10KM | |
| 2025-05-06 02:08:18 | 27 | 91 | 25 | 210 | 5.7 | 1009 | Cloudy | 10KM | |
| 2025-05-06 01:05:39 | 27 | 89 | 25 | 240 | 3.8 | 1009 | Cloudy | 10KM | |
| 2025-05-06 00:06:46 | 28 | 86 | 25 | 180 | 5.7 | 1010 | Cloudy | 10KM | |
| 2025-05-05 23:08:43 | 28 | 87 | 25 | 190 | 5.7 | 1010 | Cloudy | 10KM | |
| 2025-05-05 22:01:37 | 28 | 84 | 25 | 190 | 7.6 | 1010 | Cloudy | 10KM | |
| 2025-05-05 21:00:42 | 29 | 78 | 0.00 | 25 | 220 | 5.7 | 1009 | Cloudy | 10 KM |